STARLINK-5687, 55473

Orbit data source: Space-Track

STARLINK-5687, 55473 is a payload satellite owned by SpaceX/Seattle (US) in LEO that was launched on Thu, 02 Feb 2023 UTC via an FALCON 9 launch vehicle from the Air Force Eastern Test Range (AFETR). Payload-class satellites include a variety of spacecraft equipped with specific instruments for various scientific and technological missions. These include communications satellites like Starlink; space stations such as the ISS; scientific satellites like the Hubble; Earth observation satellites from companies like Planet Labs, Umbra, and HawkEye 360; GPS; miniature CubeSats for education and research; and military/defense satellites.

Loading next visibility...
Identifier
55473, 2023-015AA
Orbit
LEO
Last TLE update
4 hours ago
Origin
Manufacturer
SpaceX/Seattle
Mission
Partially operational Commercial Communications
Bus & Motor
STARLINK, Unknown motor
Mass
305 kg wet, ~290 kg dry
Launch date (UTC)
2023-02-02 (2 years ago)
Launch vehicle
FALCON 9
Launch site
Air Force Eastern Test Range (AFETR)
Object type
Payload
Rocket body
Debris
Shape & HBR
Box + 1 Pan, 8.86 m
Radar Cross Section
13.562 m², Large (>1 m²)

Expand to show TLE details & history

TLE from 4 hours ago
0 STARLINK-5687
1 55473U 23015AA  25182.22395184  .00099760  00000-0  15794-2 0  9996
2 55473  42.9913 162.1840 0035884  74.8717 285.6109 15.51646733133984
Epoch: 2025-07-01T05:22Z
TLE epoch observation values (Epoch: 2025-07-01T05:22:29.438Z)
Latitude
-0.00002°
Longitude
162.03884°
Altitude
405.215 km
Speed
7.673 km/s
True Right ascension
10h 48m 44s
True Declination
0° 00' 00"
Sunlit
Object was in daylight at epoch
Visualization orbit readout
Latitude
-38.07764°
Longitude
104.27948°
Altitude
441.76 km
Speed
7.637 km/s
Apparent Right ascension
08h 06m 31s
Apparent Declination
-40° 12' 14"
Sunlit
Object is in daylight
Visualization observer readout
Local Sidereal Time
21:22:17
Azimuth
97.255° ESE
Elevation
-75.528°
Doppler factor
1
Orbital elements
Apogee altitude
438.257 km
Perigee altitude
389.512 km
Semi-major axis
6,792.022 km
Eccentricity
0.00359
Inclination
42.9913°
RAAN
162.184°
Arg. of periapsis
74.8717°
True anomaly
Unknown
Mean anomaly
285.6109°
Eccentric anomaly
Unknown
Mean motion
3.87744 °/min
Orbital period
92.84 mins
BSTAR
0.0015794
Loading maneuver chart data...
Loading SW <> Apogee altitude chart data...
Loading historical data...
Loading historical data...
Loading historical data...
Loading historical data...
Loading historical data...
Loading historical data...
Loading historical data...

STARLINK-5687 Visibility forecast

Observer location: undefined°, undefined°

Span
Click to sort rows by Start time (UTC) header in descending order
Start Az.
Max El. time (UTC)
Max El. Az.
Max El.
End time (UTC)
End Az.
4 mins2025-07-02 01:39:57.528Z196.542° SSW2025-07-02 01:41:57.528Z143.352° SSE23.066°2025-07-02 01:43:57.528Z96.404° ESE
5 mins2025-07-02 03:16:57.528Z261.996° W2025-07-02 03:18:57.528Z352.633° N43.687°2025-07-02 03:21:57.528Z70.123° E
4 mins2025-07-02 04:54:57.528Z301.263° NW2025-07-02 04:55:57.528Z332.251° NNW33.51°2025-07-02 04:58:57.528Z74.505° E
5 mins2025-07-02 06:31:57.528Z286.546° WNW2025-07-02 06:33:57.528Z163.037° S44.766°2025-07-02 06:36:57.528Z111.71° ESE
|